Probability
61 61 60 52 41 34 30 25 20 18 16 11 7 4 2 0 1 6 16 22 17 9 5 3 2 3 6 9 9 9 9 7 4 4 5 4 2 0 0 0 1 0 0
64 65 61 54 46 41 37 30 22 18 17 13 9 7 4 2 2 4 9 14 13 9 5 4 4 5 7 8 9 11 13 12 9 8 7 6 3 1 0 0 1 1 0
61 62 59 54 51 49 45 37 26 20 18 15 13 12 11 9 7 6 7 11 12 9 7 6 6 7 8 8 10 14 17 18 16 13 10 9 6 2 1 1 1 1 1
46 50 52 50 49 47 44 38 29 22 18 15 14 16 18 17 14 12 13 14 15 14 13 11 9 9 10 11 15 21 24 24 20 16 14 13 11 6 3 2 1 1 1
31 36 41 41 40 39 36 33 29 23 18 14 13 15 17 17 17 17 17 16 16 18 19 16 13 11 13 16 20 26 29 27 23 20 19 18 15 12 9 5 3 2 1
24 27 31 32 32 32 30 28 25 20 15 12 12 13 13 13 12 14 15 14 13 15 18 19 18 15 14 16 20 24 28 29 27 27 26 23 19 18 17 11 6 3 1
23 24 27 28 28 27 25 21 18 14 10 11 12 11 11 9 7 8 11 12 9 9 12 15 17 16 15 15 16 18 22 28 31 33 33 30 27 26 25 20 13 6 2
20 19 22 25 24 21 17 13 10 9 8 10 11 10 8 6 4 4 7 8 7 6 6 8 10 12 14 14 13 12 15 22 29 33 34 35 34 33 32 28 21 11 5
15 13 15 18 17 14 12 10 7 7 8 9 10 9 7 4 4 4 5 6 6 5 3 2 4 6 8 10 9 6 8 14 20 26 32 36 34 31 30 29 23 14 8
10 9 9 12 13 12 11 10 9 11 11 12 14 13 9 6 5 5 4 4 4 3 1 0 1 2 4 5 4 3 3 6 9 16 27 34 34 28 24 22 20 17 14
5 4 6 9 12 12 12 12 12 16 18 20 21 20 17 12 7 5 4 3 2 1 1 0 0 1 2 3 3 2 1 1 2 6 15 24 26 25 21 18 17 19 19
1 1 2 5 8 10 12 15 18 22 25 28 29 27 24 17 11 8 8 6 4 3 2 1 0 0 1 1 1 1 0 0 0 1 5 9 13 16 17 17 18 21 22
0 0 0 1 3 6 9 16 22 26 29 31 31 31 28 22 17 14 13 10 8 6 3 1 0 0 0 0 0 0 0 0 0 0 0 1 3 7 11 14 17 20 22
0 0 0 0 0 2 5 10 18 23 27 31 31 32 31 26 23 21 19 15 12 9 5 2 1 0 0 0 0 0 0 0 0 0 0 0 0 2 5 8 11 13 14
0 0 0 0 0 0 2 5 9 15 22 28 31 32 31 30 29 27 25 23 18 12 7 5 3 2 1 1 1 1 1 0 0 0 0 0 0 0 1 2 3 5 5
0 0 0 0 0 1 2 3 5 8 14 21 26 29 31 33 33 30 28 27 23 17 11 7 7 5 3 2 2 1 1 0 0 0 0 0 0 0 0 0 0 1 1
0 0 0 0 0 1 2 2 3 4 6 10 15 19 25 30 31 30 27 25 24 21 14 10 9 8 6 5 3 2 1 1 1 1 0 0 0 0 0 0 0 0 0
1 0 0 0 0 0 1 1 1 1 1 2 5 9 13 19 24 27 26 23 20 18 14 11 11 10 8 6 4 2 1 2 3 1 0 0 0 0 0 0 0 0 0
2 1 1 0 0 0 0 0 0 0 0 0 1 2 5 8 14 21 24 22 17 14 14 12 11 11 8 6 5 2 1 2 2 1 0 0 0 0 0 0 0 0 0
3 3 2 1 0 0 0 0 0 0 0 0 0 0 1 3 6 11 17 19 17 15 14 13 12 10 7 5 5 4 2 2 1 0 0 0 0 0 0 0 0 0 0
3 3 3 1 0 0 0 1 0 0 0 0 0 0 0 0 1 2 7 12 14 14 14 13 12 9 5 4 6 5 2 1 0 0 0 0 0 0 0 0 0 0 0
2 2 1 0 0 0 0 0 0 0 0 0 0 0 0 0 0 0 1 4 6 8 11 13 13 9 5 4 5 5 2 1 1 0 0 0 0 0 0 0 0 0 0
1 1 0 0 0 0 0 0 0 0 0 0 0 0 0 0 0 0 0 0 1 2 5 10 12 10 7 6 6 5 4 3 2 1 0 0 0 0 0 0 0 0 0
1 1 0 0 0 0 0 0 0 0 0 0 0 0 0 0 0 0 0 0 0 0 1 4 8 7 6 7 8 7 6 4 3 2 0 0 0 0 0 0 0 0 0
2 1 0 0 0 0 0 0 0 0 0 0 0 0 0 0 0 0 0 0 0 0 0 1 2 2 3 3 6 7 5 4 2 1 0 0 0 0 0 0 0 0 0
1 1 0 0 0 0 0 0 0 0 0 0 0 0 0 0 0 0 0 0 0 1 1 1 0 0 0 0 2 4 4 3 1 0 0 0 0 0 0 0 0 0 0
Wind_Speed
7 7 6 6 7 6 7 7 8 9 9 10 10 11 11 11 10 9 6 12 14 14 16 16 16 16 16 16 16 17 18 18 17 17 17 17 16 16 15 15 15 14 13
7 7 7 7 8 7 7 7 9 8 8 8 10 10 11 11 10 10 9 10 15 15 15 16 16 15 16 16 16 17 18 18 18 18 18 18 18 17 17 17 16 16 15
8 8 7 8 7 7 7 7 8 8 8 8 9 10 9 10 10 10 10 8 9 15 16 16 15 15 16 17 17 17 18 18 18 19 19 19 19 18 17 17 17 17 16
9 8 8 7 6 6 6 5 6 7 7 7 7 7 8 7 10 10 10 9 9 8 12 16 15 14 16 17 17 17 17 18 18 19 20 20 20 19 18 18 18 17 17
9 8 7 6 6 5 6 6 6 6 6 6 7 7 7 8 8 9 10 10 9 9 8 10 14 13 14 16 16 17 17 18 18 19 20 20 21 20 19 18 18 17 17
8 7 6 5 6 5 5 5 6 6 6 6 7 6 6 7 6 7 8 9 9 10 11 10 9 11 14 13 13 15 17 18 18 19 20 21 21 20 19 19 19 18 18
6 6 5 5 6 6 6 7 7 8 7 5 6 6 7 8 7 6 7 7 8 8 8 8 8 7 8 13 13 13 15 17 17 18 19 19 20 20 20 20 19 19 19
5 5 5 5 6 5 7 7 7 7 6 5 6 5 5 6 6 6 5 6 6 6 7 8 7 6 7 6 8 12 13 15 16 16 17 17 18 19 20 20 20 20 19
5 4 4 5 5 7 6 8 8 10 7 6 7 6 5 4 3 5 5 5 5 5 6 5 7 7 7 6 6 11 11 10 12 15 15 16 16 17 18 19 20 20 20
4 4 5 5 5 6 6 8 9 8 9 8 6 6 6 4 5 4 6 6 6 6 6 5 6 6 8 7 5 4 8 8 9 11 12 14 15 16 17 18 20 20 20
3 4 4 4 5 6 6 7 7 9 8 8 7 6 7 6 8 7 5 5 6 6 6 6 5 5 6 6 6 6 7 7 7 9 10 11 13 14 16 18 20 21 21
3 3 4 4 5 5 6 7 7 9 8 8 7 7 7 7 8 8 8 7 6 5 5 4 5 5 5 5 5 5 4 5 6 7 8 9 11 12 14 17 20 21 22
4 3 4 4 5 5 6 7 7 8 9 9 9 8 8 8 7 7 7 7 6 5 5 6 6 5 4 4 3 5 5 6 6 6 7 8 9 10 12 14 17 19 20
6 5 6 6 7 6 7 6 7 8 8 9 10 9 7 8 7 7 7 7 7 7 7 6 4 5 4 4 3 4 4 6 6 6 7 8 9 10 10 11 13 14 15
8 8 8 8 8 8 8 7 7 8 8 9 10 11 10 8 7 7 7 8 8 8 7 6 6 5 4 3 3 4 4 4 5 6 6 7 7 8 9 10 11 12 12
10 10 11 10 10 10 9 9 9 8 8 9 8 10 10 9 7 8 8 8 8 8 7 4 5 5 3 3 4 4 3 4 5 6 6 6 6 7 7 8 8 9 10
12 12 12 12 12 12 11 10 10 9 10 9 9 10 10 10 8 8 8 8 8 8 8 6 5 4 5 5 4 4 4 4 4 6 6 5 5 5 5 5 5 6 7
13 14 13 13 13 13 12 12 12 11 10 10 9 9 9 8 10 9 7 9 8 8 8 8 6 5 7 6 5 4 4 3 2 5 5 4 4 3 3 3 3 4 5
14 14 14 14 14 13 13 13 12 12 11 10 10 9 10 9 10 8 9 9 8 8 8 8 8 5 5 5 5 4 4 2 2 4 6 5 4 3 3 3 3 3 3
15 15 14 14 14 14 14 13 12 12 11 11 10 10 10 10 10 10 9 10 9 9 8 8 8 7 6 6 6 5 4 3 2 3 4 4 6 6 5 4 4 4 4
16 15 15 15 15 13 13 13 12 12 12 12 11 11 11 10 9 8 8 9 9 9 9 9 9 7 7 7 7 6 5 4 3 3 4 3 4 4 5 5 6 6 6
15 15 15 14 15 13 10 9 11 12 12 12 12 12 11 11 12 12 11 11 11 11 11 9 9 9 9 9 7 6 6 5 4 4 4 3 3 4 4 4 7 8 8
14 14 14 14 14 13 9 9 11 12 13 12 12 11 11 10 10 11 12 14 15 15 14 11 11 10 9 9 9 9 8 7 5 6 5 4 3 5 5 6 9 9 9
13 13 13 14 13 13 11 11 11 13 14 13 13 13 13 12 10 10 10 11 12 13 14 13 12 11 9 8 9 8 7 6 5 5 5 4 4 5 5 6 8 9 10
12 12 12 12 13 12 11 12 12 11 12 14 14 14 13 13 10 9 11 12 12 11 11 11 10 7 5 4 5 6 8 8 6 5 4 5 6 5 5 5 7 10 10
11 11 11 11 12 12 10 12 14 11 12 11 11 12 13 13 8 9 12 13 12 11 10 9 10 10 10 10 10 10 10 9 7 6 6 6 8 7 5 4 5 6 7
Wind_Direction
239 241 243 246 249 246 238 239 243 245 245 244 243 237 240 241 242 239 221 188 203 217 224 227 228 227 223 219 215 213 212 212 211 210 211 213 213 210 207 205 203 201 199
247 246 245 243 245 245 249 253 253 250 249 247 246 243 242 243 240 239 241 208 204 214 222 227 228 226 225 222 217 215 215 215 213 212 212 212 213 213 210 208 206 203 201
249 247 248 246 246 246 244 248 256 255 250 244 243 246 244 245 246 242 246 247 223 208 214 222 227 226 224 222 218 216 215 214 214 213 213 212 213 213 212 211 209 206 203
250 249 245 246 247 248 246 243 252 253 252 254 251 250 249 243 246 244 242 239 244 238 210 211 222 226 225 224 221 217 214 214 215 214 214 214 213 213 213 212 211 209 205
248 243 244 244 248 249 249 251 244 250 250 251 251 243 247 246 245 245 245 245 240 242 243 201 206 220 225 226 224 221 217 214 214 215 216 216 214 213 213 213 213 210 208
250 240 236 241 249 245 244 247 255 249 255 250 255 254 250 252 248 246 246 243 238 236 236 236 213 210 213 220 223 223 221 216 214 215 216 217 216 213 213 213 213 212 210
258 242 243 231 239 238 240 240 242 238 241 243 249 246 236 234 238 239 238 245 233 232 236 234 237 234 204 203 214 222 224 221 217 216 216 216 216 214 212 213 214 214 212
267 241 233 239 236 239 237 234 234 246 237 224 245 253 242 209 209 223 221 224 234 227 224 222 228 230 247 223 195 207 222 225 222 219 218 217 217 215 213 214 214 214 214
299 286 259 253 252 247 234 230 226 233 241 229 231 249 255 247 208 189 213 216 218 229 231 222 224 225 230 238 218 196 206 219 226 225 222 221 219 216 215 214 214 214 214
317 308 288 270 258 254 244 235 228 231 237 236 219 232 257 297 267 215 197 196 205 220 235 241 235 224 228 234 221 211 192 210 225 229 227 225 220 214 213 215 217 217 217
293 294 290 285 271 264 259 253 245 240 235 241 235 220 217 221 240 260 235 206 208 214 215 227 239 241 231 234 232 206 177 205 223 230 231 230 224 217 216 218 220 222 220
269 279 284 284 275 273 267 259 254 244 244 244 248 240 227 222 222 230 239 231 227 220 216 230 237 230 227 229 218 120 164 211 224 228 231 232 229 224 222 223 225 225 224
277 270 281 279 280 279 274 268 258 258 249 241 239 241 240 241 239 238 243 241 237 227 215 224 222 224 223 223 186 138 193 207 221 227 231 233 234 231 229 228 229 229 227
281 279 268 266 266 266 266 266 265 256 250 245 240 241 243 242 240 237 240 243 236 229 219 219 212 213 214 219 140 203 209 189 212 227 232 233 234 232 230 231 230 230 229
271 264 263 263 263 261 260 258 258 258 256 248 244 234 235 237 235 237 237 240 244 243 230 199 212 200 208 215 163 229 236 176 204 220 226 228 231 231 229 230 230 228 227
270 267 264 263 261 259 257 256 258 250 252 254 252 249 241 238 231 230 231 234 237 248 252 225 207 205 205 219 190 231 234 172 199 211 217 221 224 227 226 226 225 221 219
266 261 257 257 257 257 255 252 255 255 249 250 252 250 246 244 239 235 229 229 230 236 243 239 224 201 208 236 218 228 226 231 197 186 198 206 208 209 210 212 214 216 216
263 260 257 255 253 253 252 251 251 251 248 247 247 248 250 247 240 239 236 232 230 231 238 241 234 216 212 219 222 228 229 228 207 136 156 168 174 177 180 188 198 202 206
265 262 258 254 252 253 252 249 249 251 248 246 245 243 242 241 243 241 237 235 233 228 228 233 234 223 218 213 209 213 211 201 187 137 137 142 137 135 139 143 147 159 168
267 263 258 253 251 250 249 247 244 244 247 246 242 242 243 238 236 238 241 239 237 237 229 230 230 220 214 208 209 209 196 179 171 145 105 104 112 111 108 110 115 122 128
270 265 261 256 251 248 243 242 242 242 243 245 242 239 238 237 241 239 245 242 236 234 230 226 225 219 214 204 209 205 196 168 152 158 141 135 139 129 114 105 105 104 107
272 269 263 259 254 250 236 220 237 249 246 243 242 240 239 226 226 222 233 247 251 244 238 233 230 223 218 211 206 203 188 180 175 166 153 126 115 102 88 82 85 94 96
274 268 263 257 255 252 234 212 222 245 249 245 243 241 242 236 222 230 223 225 236 241 245 246 245 238 224 213 204 201 197 197 179 159 152 123 112 100 86 81 88 93 95
275 271 265 258 254 249 221 212 216 237 246 245 243 240 240 245 237 235 240 236 235 229 226 230 239 242 240 222 208 207 195 173 140 150 159 133 127 112 101 91 83 91 97
276 270 264 257 252 249 223 207 211 237 238 240 240 239 239 239 230 212 236 243 242 239 225 227 239 247 250 217 204 194 180 173 165 162 171 142 136 122 108 102 95 91 95
276 272 265 257 250 247 229 206 207 234 238 238 234 237 233 236 228 197 231 239 239 236 229 212 215 222 223 208 199 205 193 183 168 164 172 154 150 144 123 115 122 124 109